N624JX KIAD-KPDX

Flight info

Callsign N624JX
Flight time 4h 39m
Altitude 40000
Route MCRAY2 MCRAY Q178 DJB DXO KC75Q PEGEE/N0525F430 KP87M CESNA DIK HLN PDT JKNOX HHOOD6
Aircraft C750/M-SBDE3FGHRWXY/S

Departure

Time 2026-05-07 15:52
Airport Washington Dulles International Airport (KIAD)

Arrival

Time 2026-05-07 20:31
Airport Portland International Airport (KPDX)
Time Latitude Longitude Altitude Speed Heading
2026-05-07 15:29 38.95397 -77.44129 297 ft 0 kts
2026-05-07 15:37 38.95398 -77.44128 297 ft 1 kts
2026-05-07 15:38 38.95402 -77.44117 299 ft 1 kts 93°
2026-05-07 15:38 38.95399 -77.44093 297 ft 4 kts 103°
2026-05-07 15:38 38.95375 -77.44075 298 ft 5 kts 178°
2026-05-07 15:38 38.95350 -77.44058 297 ft 5 kts 103°
2026-05-07 15:39 38.95349 -77.44005 297 ft 6 kts 97°
2026-05-07 15:39 38.95310 -77.43965 299 ft 8 kts 175°
2026-05-07 15:39 38.95254 -77.43965 298 ft 8 kts 181°
2026-05-07 15:39 38.95200 -77.43966 298 ft 8 kts 180°
2026-05-07 15:40 38.95139 -77.43966 297 ft 9 kts 181°
2026-05-07 15:40 38.95099 -77.44016 298 ft 9 kts 260°
2026-05-07 15:40 38.95100 -77.44096 297 ft 9 kts 271°
2026-05-07 15:40 38.95101 -77.44176 297 ft 10 kts 271°
2026-05-07 15:41 38.95102 -77.44275 298 ft 12 kts 271°
2026-05-07 15:41 38.95103 -77.44382 297 ft 11 kts 270°
2026-05-07 15:41 38.95104 -77.44474 298 ft 11 kts 270°
2026-05-07 15:41 38.95104 -77.44589 297 ft 15 kts 270°
2026-05-07 15:42 38.95106 -77.44719 297 ft 14 kts 271°
2026-05-07 15:42 38.95107 -77.44832 297 ft 12 kts 271°
2026-05-07 15:42 38.95108 -77.44931 297 ft 10 kts 271°
2026-05-07 15:42 38.95109 -77.45022 297 ft 10 kts 270°
2026-05-07 15:43 38.95110 -77.45112 297 ft 10 kts 270°
2026-05-07 15:43 38.95110 -77.45198 297 ft 9 kts 270°
2026-05-07 15:43 38.95111 -77.45283 297 ft 10 kts 270°
2026-05-07 15:43 38.95112 -77.45385 297 ft 12 kts 270°
2026-05-07 15:44 38.95113 -77.45500 297 ft 13 kts 270°
2026-05-07 15:44 38.95099 -77.45588 300 ft 9 kts 228°
2026-05-07 15:44 38.95045 -77.45603 297 ft 8 kts 181°
2026-05-07 15:44 38.94993 -77.45604 298 ft 7 kts 181°
2026-05-07 15:45 38.94941 -77.45605 297 ft 9 kts 180°
2026-05-07 15:45 38.94860 -77.45606 298 ft 14 kts 181°
2026-05-07 15:45 38.94766 -77.45608 297 ft 13 kts 181°
2026-05-07 15:45 38.94678 -77.45609 297 ft 12 kts 180°
2026-05-07 15:46 38.94517 -77.45612 297 ft 11 kts 180°
2026-05-07 15:46 38.94444 -77.45612 298 ft 10 kts 180°
2026-05-07 15:46 38.94370 -77.45613 297 ft 11 kts 180°
2026-05-07 15:47 38.94285 -77.45614 297 ft 13 kts 180°
2026-05-07 15:47 38.94194 -77.45615 299 ft 12 kts 180°
2026-05-07 15:47 38.94115 -77.45616 298 ft 11 kts 180°
2026-05-07 15:47 38.94045 -77.45618 297 ft 9 kts 180°
2026-05-07 15:48 38.93981 -77.45618 297 ft 9 kts 181°
2026-05-07 15:48 38.93925 -77.45619 297 ft 9 kts 180°
2026-05-07 15:48 38.93860 -77.45619 299 ft 10 kts 180°
2026-05-07 15:48 38.93786 -77.45621 298 ft 11 kts 180°
2026-05-07 15:49 38.93711 -77.45619 297 ft 10 kts 164°
2026-05-07 15:49 38.93670 -77.45564 299 ft 8 kts 131°
2026-05-07 15:49 38.93636 -77.45513 297 ft 7 kts 130°
2026-05-07 15:49 38.93597 -77.45494 298 ft 7 kts 187°
2026-05-07 15:50 38.93549 -77.45514 298 ft 7 kts 200°
2026-05-07 15:50 38.93505 -77.45536 297 ft 7 kts 200°
2026-05-07 15:50 38.93457 -77.45559 296 ft 8 kts 201°
2026-05-07 15:50 38.93424 -77.45575 295 ft 8 kts 201°
2026-05-07 15:51 38.93374 -77.45603 297 ft 7 kts 220°
2026-05-07 15:51 38.93377 -77.45650 297 ft 8 kts 291°
2026-05-07 15:51 38.93489 -77.46032 298 ft 93 kts 291°
2026-05-07 15:51 38.93798 -77.47080 318 ft 147 kts 292°
2026-05-07 15:52 38.94183 -77.48357 803 ft 154 kts 293°
2026-05-07 15:52 38.94792 -77.49544 1311 ft 166 kts 313°
2026-05-07 15:52 38.95565 -77.50716 1843 ft 179 kts 312°
2026-05-07 15:52 38.96387 -77.52019 2398 ft 196 kts 311°
2026-05-07 15:53 38.97290 -77.53434 2975 ft 213 kts 312°
2026-05-07 15:53 38.98269 -77.54960 3557 ft 229 kts 311°
2026-05-07 15:53 38.99319 -77.56600 4148 ft 245 kts 310°
2026-05-07 15:53 39.00398 -77.58288 5134 ft 242 kts 309°
2026-05-07 15:54 39.01485 -77.59952 6028 ft 245 kts 311°
2026-05-07 15:54 39.02993 -77.61115 6825 ft 255 kts 334°
2026-05-07 15:54 39.04663 -77.61889 7602 ft 262 kts 334°
2026-05-07 15:54 39.06415 -77.62725 8392 ft 269 kts 333°
2026-05-07 15:55 39.08196 -77.63555 9079 ft 276 kts 333°
2026-05-07 15:55 39.10007 -77.64379 9727 ft 283 kts 332°
2026-05-07 15:55 39.11883 -77.65238 10258 ft 291 kts 332°
2026-05-07 15:55 39.13821 -77.66135 10694 ft 301 kts 332°
2026-05-07 15:56 39.15821 -77.67058 11160 ft 310 kts 332°
2026-05-07 15:56 39.17884 -77.68008 11620 ft 320 kts 331°
2026-05-07 15:56 39.20014 -77.68991 12088 ft 330 kts 331°
2026-05-07 15:56 39.22206 -77.70002 12555 ft 338 kts 331°
2026-05-07 15:57 39.24447 -77.71036 13023 ft 346 kts 331°
2026-05-07 15:57 39.26739 -77.72095 13517 ft 354 kts 331°
2026-05-07 15:57 39.29079 -77.73178 13979 ft 361 kts 331°
2026-05-07 15:57 39.31467 -77.74282 14410 ft 368 kts 331°
2026-05-07 15:58 39.33899 -77.75408 14843 ft 374 kts 331°
2026-05-07 15:58 39.36362 -77.76550 15285 ft 379 kts 330°
2026-05-07 15:58 39.38860 -77.77717 15770 ft 382 kts 329°
2026-05-07 15:58 39.41300 -77.79065 16221 ft 383 kts 327°
2026-05-07 15:59 39.43759 -77.80450 16776 ft 385 kts 327°
2026-05-07 15:59 39.46226 -77.81814 17393 ft 387 kts 327°
2026-05-07 15:59 39.48608 -77.83371 17942 ft 380 kts 319°
2026-05-07 15:59 39.50757 -77.85300 18531 ft 373 kts 311°
2026-05-07 16:00 39.52660 -77.87533 19081 ft 366 kts 304°
2026-05-07 16:00 39.54299 -77.90018 19632 ft 360 kts 297°
2026-05-07 16:00 39.55658 -77.92698 20233 ft 353 kts 290°
2026-05-07 16:00 39.56734 -77.95528 20837 ft 347 kts 284°
2026-05-07 16:01 39.57615 -77.98429 21444 ft 347 kts 283°
2026-05-07 16:01 39.58513 -78.01337 22057 ft 347 kts 283°
2026-05-07 16:01 39.59413 -78.04241 22675 ft 348 kts 282°
2026-05-07 16:01 39.60302 -78.07157 23272 ft 348 kts 282°
2026-05-07 16:02 39.61188 -78.10074 23812 ft 348 kts 281°
2026-05-07 16:02 39.62077 -78.12985 24285 ft 348 kts 281°
2026-05-07 16:02 39.62969 -78.15911 24722 ft 350 kts 281°
2026-05-07 16:02 39.63864 -78.18850 25173 ft 351 kts 281°
2026-05-07 16:03 39.64762 -78.21803 25634 ft 352 kts 281°
2026-05-07 16:03 39.65663 -78.24769 26144 ft 354 kts 281°
2026-05-07 16:03 39.66567 -78.27750 26577 ft 356 kts 281°
2026-05-07 16:03 39.67475 -78.30741 27045 ft 357 kts 280°
2026-05-07 16:04 39.68385 -78.33743 27496 ft 358 kts 280°
2026-05-07 16:04 39.69296 -78.36758 27967 ft 359 kts 280°
2026-05-07 16:04 39.70208 -78.39779 28408 ft 360 kts 279°
2026-05-07 16:04 39.71125 -78.42820 28815 ft 362 kts 279°
2026-05-07 16:05 39.72045 -78.45871 29257 ft 364 kts 279°
2026-05-07 16:05 39.72968 -78.48937 29659 ft 365 kts 279°
2026-05-07 16:05 39.73882 -78.51976 30055 ft 367 kts 279°
2026-05-07 16:05 39.74811 -78.55070 30379 ft 368 kts 279°
2026-05-07 16:06 39.75742 -78.58173 30720 ft 368 kts 279°
2026-05-07 16:06 39.76671 -78.61259 31131 ft 365 kts 279°
2026-05-07 16:06 39.77588 -78.64318 31478 ft 362 kts 279°
2026-05-07 16:06 39.78495 -78.67358 31807 ft 360 kts 279°
2026-05-07 16:07 39.79396 -78.70382 32150 ft 359 kts 279°
2026-05-07 16:07 39.80297 -78.73398 32505 ft 356 kts 279°
2026-05-07 16:07 39.81191 -78.76393 32803 ft 355 kts 279°
2026-05-07 16:07 39.82079 -78.79378 33163 ft 352 kts 279°
2026-05-07 16:08 39.82960 -78.82342 33484 ft 351 kts 279°
2026-05-07 16:08 39.83836 -78.85290 33893 ft 348 kts 279°
2026-05-07 16:08 39.84705 -78.88218 34209 ft 346 kts 279°
2026-05-07 16:08 39.85569 -78.91139 34475 ft 346 kts 279°
2026-05-07 16:09 39.86432 -78.94060 34735 ft 346 kts 279°
2026-05-07 16:09 39.87297 -78.96985 35023 ft 346 kts 279°
2026-05-07 16:09 39.88163 -78.99913 35315 ft 347 kts 279°
2026-05-07 16:09 39.89027 -79.02843 35600 ft 347 kts 279°
2026-05-07 16:10 39.89892 -79.05779 35893 ft 348 kts 280°
2026-05-07 16:10 39.90758 -79.08726 36199 ft 350 kts 280°
2026-05-07 16:10 39.91630 -79.11693 36523 ft 351 kts 280°
2026-05-07 16:10 39.92505 -79.14665 36906 ft 352 kts 280°
2026-05-07 16:11 39.93380 -79.17645 37292 ft 352 kts 280°
2026-05-07 16:11 39.94254 -79.20629 37638 ft 353 kts 281°
2026-05-07 16:11 39.95131 -79.23625 38014 ft 354 kts 281°
2026-05-07 16:11 39.96008 -79.26626 38372 ft 355 kts 281°
2026-05-07 16:12 39.96889 -79.29639 38714 ft 356 kts 281°
2026-05-07 16:12 39.97771 -79.32664 38961 ft 358 kts 281°
2026-05-07 16:12 39.98656 -79.35699 39298 ft 359 kts 282°
2026-05-07 16:12 39.99546 -79.38715 39451 ft 366 kts 283°
2026-05-07 16:13 40.00652 -79.41750 39728 ft 373 kts 288°
2026-05-07 16:13 40.01985 -79.44697 39986 ft 383 kts 292°
2026-05-07 16:13 40.03499 -79.47622 39985 ft 394 kts 293°
2026-05-07 16:14 40.06607 -79.53694 39990 ft 411 kts 293°
2026-05-07 16:14 40.09867 -79.60042 39997 ft 430 kts 294°
2026-05-07 16:15 40.13235 -79.66614 39989 ft 438 kts 294°
2026-05-07 16:15 40.16627 -79.73258 39987 ft 440 kts 294°
2026-05-07 16:16 40.20028 -79.79931 39988 ft 441 kts 294°
2026-05-07 16:16 40.23438 -79.86641 39960 ft 443 kts 294°
2026-05-07 16:17 40.26853 -79.93368 39962 ft 444 kts 294°
2026-05-07 16:17 40.30285 -80.00148 39966 ft 444 kts 294°
2026-05-07 16:18 40.33672 -80.06853 39966 ft 444 kts 294°
2026-05-07 16:18 40.37080 -80.13615 39969 ft 444 kts 294°
2026-05-07 16:19 40.40487 -80.20392 39970 ft 447 kts 294°
2026-05-07 16:19 40.43910 -80.27207 39968 ft 447 kts 294°
2026-05-07 16:20 40.47325 -80.34027 39955 ft 447 kts 294°
2026-05-07 16:20 40.50734 -80.40848 39965 ft 446 kts 294°
2026-05-07 16:21 40.54152 -80.47708 39982 ft 449 kts 295°
2026-05-07 16:21 40.57575 -80.54582 40003 ft 449 kts 295°
2026-05-07 16:22 40.60998 -80.61482 39986 ft 450 kts 295°
2026-05-07 16:22 40.64442 -80.68432 40007 ft 450 kts 295°
2026-05-07 16:23 40.67835 -80.75303 40005 ft 450 kts 295°
2026-05-07 16:23 40.71249 -80.82224 40005 ft 450 kts 295°
2026-05-07 16:24 40.74678 -80.89198 40006 ft 450 kts 295°
2026-05-07 16:24 40.78088 -80.96146 40050 ft 452 kts 295°
2026-05-07 16:25 40.81496 -81.03105 39994 ft 455 kts 295°
2026-05-07 16:25 40.84927 -81.10126 39988 ft 455 kts 295°
2026-05-07 16:26 40.88353 -81.17154 39984 ft 455 kts 295°
2026-05-07 16:26 40.91774 -81.24187 39980 ft 455 kts 295°
2026-05-07 16:27 40.95193 -81.31236 39976 ft 456 kts 295°
2026-05-07 16:27 40.98619 -81.38308 39966 ft 456 kts 295°
2026-05-07 16:28 41.02059 -81.45431 39972 ft 456 kts 295°
2026-05-07 16:28 41.05480 -81.52533 39967 ft 459 kts 295°
2026-05-07 16:29 41.08886 -81.59612 39983 ft 459 kts 295°
2026-05-07 16:29 41.12333 -81.66802 40008 ft 459 kts 295°
2026-05-07 16:30 41.15767 -81.73977 39987 ft 461 kts 295°
2026-05-07 16:30 41.18617 -81.79944 39984 ft 461 kts 295°
2026-05-07 16:31 41.22043 -81.87136 39986 ft 461 kts 295°
2026-05-07 16:31 41.26019 -81.95501 39984 ft 461 kts 295°
2026-05-07 16:32 41.28880 -82.01534 40016 ft 461 kts 295°
2026-05-07 16:32 41.32303 -82.08773 39994 ft 462 kts 295°
2026-05-07 16:33 41.35851 -82.15927 39982 ft 468 kts 300°
2026-05-07 16:33 41.40300 -82.22384 39987 ft 475 kts 306°
2026-05-07 16:34 41.44872 -82.28741 39998 ft 475 kts 305°
2026-05-07 16:34 41.49455 -82.35089 40002 ft 475 kts 306°
2026-05-07 16:35 41.54030 -82.41456 40019 ft 478 kts 306°
2026-05-07 16:35 41.58630 -82.47865 40001 ft 478 kts 306°
2026-05-07 16:36 41.63232 -82.54291 40004 ft 478 kts 306°
2026-05-07 16:36 41.67826 -82.60725 40003 ft 478 kts 306°
2026-05-07 16:37 41.72417 -82.67163 39997 ft 478 kts 306°
2026-05-07 16:37 41.77005 -82.73617 39999 ft 479 kts 306°
2026-05-07 16:38 41.81595 -82.80082 39992 ft 479 kts 306°
2026-05-07 16:38 41.86177 -82.86555 40002 ft 478 kts 306°
2026-05-07 16:39 41.90757 -82.93037 39991 ft 478 kts 306°
2026-05-07 16:39 41.95300 -82.99482 39987 ft 479 kts 306°
2026-05-07 16:40 41.99870 -83.05980 39985 ft 479 kts 306°
2026-05-07 16:40 42.04451 -83.12508 39977 ft 480 kts 306°
2026-05-07 16:41 42.09030 -83.19047 39985 ft 480 kts 306°
2026-05-07 16:41 42.13594 -83.25580 39988 ft 480 kts 306°
2026-05-07 16:42 42.18175 -83.32150 39990 ft 480 kts 306°
2026-05-07 16:42 42.22387 -83.39032 39993 ft 472 kts 297°
2026-05-07 16:43 42.25825 -83.46566 39996 ft 472 kts 296°
2026-05-07 16:43 42.29285 -83.54105 40009 ft 472 kts 296°
2026-05-07 16:44 42.32720 -83.61698 39994 ft 474 kts 296°
2026-05-07 16:44 42.36173 -83.69292 39993 ft 474 kts 296°
2026-05-07 16:45 42.39601 -83.76886 39991 ft 474 kts 296°
2026-05-07 16:45 42.43039 -83.84499 39993 ft 474 kts 296°
2026-05-07 16:46 42.46471 -83.92132 40001 ft 477 kts 296°
2026-05-07 16:46 42.50070 -83.99735 39981 ft 483 kts 302°
2026-05-07 16:47 42.54658 -84.06498 39991 ft 489 kts 308°
2026-05-07 16:47 42.59376 -84.13146 40001 ft 489 kts 308°
2026-05-07 16:48 42.64110 -84.19790 40002 ft 489 kts 308°
2026-05-07 16:48 42.68829 -84.26447 40000 ft 489 kts 308°
2026-05-07 16:49 42.73546 -84.33111 40001 ft 489 kts 308°
2026-05-07 16:49 42.78260 -84.39785 40012 ft 489 kts 308°
2026-05-07 16:50 42.82969 -84.46473 40014 ft 489 kts 308°
2026-05-07 16:50 42.87675 -84.53167 40016 ft 489 kts 308°
2026-05-07 16:51 42.92386 -84.59890 40014 ft 491 kts 308°
2026-05-07 16:51 42.97102 -84.66626 40017 ft 491 kts 308°
2026-05-07 16:52 43.01808 -84.73373 40014 ft 490 kts 308°
2026-05-07 16:52 43.06512 -84.80128 40012 ft 490 kts 308°
2026-05-07 16:53 43.11211 -84.86895 40003 ft 490 kts 308°
2026-05-07 16:53 43.15530 -84.94056 39995 ft 484 kts 299°
2026-05-07 16:54 43.19124 -85.01851 40004 ft 484 kts 298°
2026-05-07 16:54 43.22736 -85.09651 40009 ft 485 kts 298°
2026-05-07 16:55 43.26329 -85.17483 40007 ft 485 kts 298°
2026-05-07 16:55 43.29929 -85.25315 40006 ft 485 kts 298°
2026-05-07 16:56 43.33512 -85.33156 40010 ft 485 kts 298°
2026-05-07 16:56 43.38898 -85.44962 40007 ft 486 kts 298°
2026-05-07 16:57 43.42485 -85.52859 40010 ft 487 kts 298°
2026-05-07 16:57 43.46068 -85.60760 40008 ft 487 kts 298°
2026-05-07 16:58 43.49646 -85.68676 40002 ft 487 kts 298°
2026-05-07 16:58 43.53216 -85.76596 40004 ft 487 kts 298°
2026-05-07 16:59 43.56782 -85.84530 40006 ft 489 kts 298°
2026-05-07 16:59 43.60364 -85.92516 40010 ft 489 kts 298°
2026-05-07 17:00 43.63939 -86.00513 40011 ft 489 kts 298°
2026-05-07 17:00 43.67507 -86.08515 40011 ft 489 kts 298°
2026-05-07 17:01 43.71071 -86.16528 40013 ft 489 kts 298°
2026-05-07 17:01 43.74603 -86.24496 40015 ft 489 kts 298°
2026-05-07 17:02 43.78156 -86.32529 40007 ft 491 kts 298°
2026-05-07 17:02 43.81718 -86.40606 40003 ft 491 kts 298°
2026-05-07 17:03 43.85273 -86.48689 40003 ft 491 kts 298°
2026-05-07 17:03 43.88822 -86.56782 40004 ft 491 kts 298°
2026-05-07 17:04 43.92364 -86.64882 40019 ft 491 kts 298°
2026-05-07 17:04 43.95901 -86.72993 40015 ft 491 kts 298°
2026-05-07 17:05 43.99431 -86.81112 40017 ft 493 kts 298°
2026-05-07 17:05 44.02970 -86.89273 40021 ft 493 kts 298°
2026-05-07 17:06 44.06504 -86.97445 40013 ft 493 kts 298°
2026-05-07 17:06 44.10032 -87.05628 40013 ft 493 kts 298°
2026-05-07 17:07 44.13556 -87.13823 40008 ft 493 kts 298°
2026-05-07 17:07 44.17077 -87.22036 40004 ft 493 kts 298°
2026-05-07 17:08 44.20588 -87.30250 39999 ft 495 kts 298°
2026-05-07 17:08 44.24103 -87.38496 39995 ft 495 kts 298°
2026-05-07 17:09 44.27612 -87.46750 39987 ft 495 kts 298°
2026-05-07 17:09 44.31115 -87.55016 39983 ft 495 kts 298°
2026-05-07 17:10 44.34611 -87.63289 39982 ft 494 kts 298°
2026-05-07 17:10 44.38098 -87.71565 39976 ft 494 kts 298°
2026-05-07 17:11 44.41583 -87.79862 39997 ft 496 kts 298°
2026-05-07 17:11 44.45072 -87.88187 39995 ft 496 kts 298°
2026-05-07 17:12 44.48553 -87.96523 39999 ft 496 kts 298°
2026-05-07 17:12 44.51785 -88.05033 39989 ft 495 kts 294°
2026-05-07 17:13 44.53296 -88.09344 40267 ft 489 kts 295°
2026-05-07 17:13 44.54797 -88.13581 40656 ft 482 kts 295°
2026-05-07 17:13 44.56279 -88.17764 41072 ft 475 kts 295°
2026-05-07 17:13 44.57242 -88.20504 41351 ft 471 kts 295°
2026-05-07 17:14 44.58674 -88.24599 41775 ft 465 kts 294°
2026-05-07 17:14 44.60090 -88.28641 42203 ft 458 kts 295°
2026-05-07 17:14 44.61488 -88.32625 42659 ft 452 kts 295°
2026-05-07 17:14 44.62886 -88.36620 42974 ft 450 kts 294°
2026-05-07 17:15 44.65659 -88.44581 42954 ft 464 kts 294°
2026-05-07 17:15 44.68550 -88.52886 42963 ft 476 kts 295°
2026-05-07 17:16 44.71488 -88.61362 42962 ft 488 kts 295°
2026-05-07 17:16 44.74493 -88.70052 42963 ft 500 kts 294°
2026-05-07 17:17 44.77533 -88.78877 42967 ft 510 kts 294°
2026-05-07 17:17 44.80571 -88.87716 42954 ft 481 kts 294°
2026-05-07 17:18 44.81994 -88.91869 42956 ft 463 kts 294°
2026-05-07 17:18 44.83380 -88.95928 42961 ft 459 kts 294°
2026-05-07 17:18 44.86168 -89.04104 42962 ft 465 kts 294°
2026-05-07 17:19 44.88967 -89.12323 42970 ft 466 kts 294°
2026-05-07 17:19 44.91763 -89.20571 42960 ft 466 kts 294°
2026-05-07 17:20 44.94552 -89.28819 42960 ft 465 kts 294°
2026-05-07 17:20 44.97334 -89.37074 42950 ft 466 kts 294°
2026-05-07 17:21 45.00110 -89.45335 42974 ft 466 kts 294°
2026-05-07 17:21 45.02890 -89.53633 42978 ft 467 kts 294°
2026-05-07 17:22 45.05660 -89.61930 42982 ft 467 kts 294°
2026-05-07 17:22 45.08425 -89.70236 42978 ft 467 kts 294°
2026-05-07 17:23 45.11184 -89.78550 42974 ft 467 kts 294°
2026-05-07 17:23 45.13936 -89.86868 42976 ft 467 kts 294°
2026-05-07 17:24 45.16682 -89.95199 42973 ft 467 kts 294°
2026-05-07 17:24 45.19422 -90.03536 42968 ft 467 kts 294°
2026-05-07 17:25 45.22162 -90.11898 42956 ft 468 kts 294°
2026-05-07 17:25 45.24898 -90.20274 42956 ft 468 kts 294°
2026-05-07 17:26 45.27626 -90.28653 42956 ft 468 kts 294°
2026-05-07 17:26 45.30331 -90.36987 42962 ft 468 kts 294°
2026-05-07 17:27 45.33045 -90.45381 42961 ft 468 kts 294°
2026-05-07 17:27 45.35756 -90.53788 42966 ft 468 kts 294°
2026-05-07 17:28 45.38459 -90.62198 42980 ft 468 kts 294°
2026-05-07 17:28 45.41164 -90.70640 42972 ft 469 kts 294°
2026-05-07 17:29 45.43859 -90.79082 42960 ft 469 kts 294°
2026-05-07 17:29 45.46571 -90.87601 42958 ft 469 kts 294°
2026-05-07 17:30 45.49238 -90.96011 42954 ft 469 kts 294°
2026-05-07 17:30 45.51917 -91.04483 42956 ft 469 kts 294°
2026-05-07 17:31 45.54591 -91.12968 42956 ft 469 kts 294°
2026-05-07 17:31 45.57256 -91.21453 42976 ft 468 kts 294°
2026-05-07 17:32 45.59918 -91.29957 42966 ft 469 kts 294°
2026-05-07 17:32 45.62574 -91.38468 42970 ft 469 kts 294°
2026-05-07 17:33 45.65225 -91.46991 42970 ft 469 kts 294°
2026-05-07 17:33 45.67869 -91.55523 42967 ft 469 kts 294°
2026-05-07 17:34 45.70504 -91.64054 42955 ft 469 kts 294°
2026-05-07 17:34 45.73132 -91.72590 42954 ft 469 kts 294°
2026-05-07 17:35 45.75754 -91.81132 42956 ft 469 kts 294°
2026-05-07 17:35 45.78373 -91.89699 42967 ft 470 kts 294°
2026-05-07 17:36 45.80988 -91.98278 42949 ft 470 kts 294°
2026-05-07 17:36 45.83595 -92.06861 42953 ft 469 kts 294°
2026-05-07 17:37 45.86192 -92.15447 42954 ft 469 kts 293°
2026-05-07 17:37 45.87930 -92.24459 42951 ft 470 kts 282°
2026-05-07 17:38 45.89224 -92.33660 42961 ft 470 kts 282°
2026-05-07 17:38 45.90519 -92.42867 42951 ft 470 kts 282°
2026-05-07 17:39 45.91797 -92.52082 42965 ft 470 kts 282°
2026-05-07 17:39 45.93068 -92.61235 42954 ft 471 kts 282°
2026-05-07 17:40 45.94333 -92.70458 42956 ft 471 kts 282°
2026-05-07 17:40 45.95597 -92.79695 42954 ft 471 kts 282°
2026-05-07 17:41 45.96852 -92.88944 42957 ft 471 kts 282°
2026-05-07 17:41 45.98100 -92.98192 42961 ft 471 kts 282°
2026-05-07 17:42 45.99340 -93.07443 42960 ft 471 kts 282°
2026-05-07 17:42 46.00573 -93.16699 42952 ft 471 kts 282°
2026-05-07 17:43 46.01796 -93.25943 42970 ft 470 kts 282°
2026-05-07 17:43 46.03011 -93.35188 42970 ft 470 kts 282°
2026-05-07 17:44 46.04219 -93.44438 42966 ft 470 kts 282°
2026-05-07 17:44 46.05420 -93.53692 42967 ft 470 kts 282°
2026-05-07 17:45 46.06613 -93.62953 42962 ft 470 kts 282°
2026-05-07 17:45 46.07798 -93.72213 42958 ft 470 kts 282°
2026-05-07 17:46 46.08977 -93.81484 42959 ft 470 kts 282°
2026-05-07 17:46 46.10147 -93.90751 42953 ft 470 kts 282°
2026-05-07 17:47 46.11312 -94.00040 42940 ft 470 kts 282°
2026-05-07 17:47 46.12465 -94.09300 42931 ft 469 kts 282°
2026-05-07 17:48 46.13612 -94.18570 42920 ft 470 kts 282°
2026-05-07 17:48 46.14752 -94.27854 42914 ft 470 kts 282°
2026-05-07 17:49 46.15884 -94.37132 42913 ft 470 kts 281°
2026-05-07 17:49 46.17006 -94.46398 42914 ft 469 kts 282°
2026-05-07 17:50 46.18114 -94.55607 42923 ft 469 kts 281°
2026-05-07 17:50 46.19221 -94.64886 42930 ft 469 kts 281°
2026-05-07 17:51 46.20321 -94.74163 42927 ft 469 kts 281°
2026-05-07 17:51 46.21413 -94.83440 42925 ft 468 kts 281°
2026-05-07 17:52 46.22495 -94.92704 42929 ft 468 kts 281°
2026-05-07 17:52 46.23571 -95.01979 42939 ft 468 kts 281°
2026-05-07 17:53 46.24639 -95.11252 42943 ft 468 kts 281°
2026-05-07 17:53 46.25700 -95.20539 42938 ft 470 kts 281°
2026-05-07 17:54 46.26756 -95.29848 42952 ft 469 kts 281°
2026-05-07 17:54 46.27804 -95.39162 42948 ft 469 kts 281°
2026-05-07 17:55 46.28845 -95.48478 42946 ft 469 kts 281°
2026-05-07 17:55 46.29878 -95.57796 42943 ft 469 kts 281°
2026-05-07 17:56 46.30901 -95.67104 42955 ft 468 kts 281°
2026-05-07 17:56 46.31910 -95.76341 42951 ft 468 kts 281°
2026-05-07 17:57 46.32754 -95.84132 42949 ft 468 kts 281°
2026-05-07 17:57 46.33918 -95.94956 42943 ft 468 kts 281°
2026-05-07 17:58 46.34910 -96.04264 42932 ft 467 kts 281°
2026-05-07 17:58 46.35892 -96.13548 42931 ft 466 kts 281°
2026-05-07 17:59 46.36866 -96.22832 42933 ft 467 kts 281°
2026-05-07 17:59 46.37833 -96.32122 42937 ft 467 kts 281°
2026-05-07 18:00 46.38791 -96.41413 42938 ft 466 kts 281°
2026-05-07 18:00 46.39741 -96.50695 42951 ft 466 kts 281°
2026-05-07 18:01 46.40526 -96.58413 42936 ft 466 kts 281°
2026-05-07 18:01 46.41462 -96.67700 42948 ft 466 kts 281°
2026-05-07 18:02 46.42853 -96.81645 42958 ft 466 kts 281°
2026-05-07 18:03 46.43769 -96.90926 42941 ft 464 kts 281°
2026-05-07 18:03 46.44677 -97.00191 42942 ft 464 kts 281°
2026-05-07 18:04 46.45576 -97.09470 42947 ft 465 kts 281°
2026-05-07 18:04 46.46469 -97.18747 42949 ft 465 kts 280°
2026-05-07 18:05 46.47354 -97.28031 42946 ft 464 kts 280°
2026-05-07 18:05 46.48229 -97.37290 42950 ft 463 kts 280°
2026-05-07 18:06 46.49096 -97.46546 42947 ft 463 kts 280°
2026-05-07 18:06 46.49956 -97.55808 42947 ft 463 kts 280°
2026-05-07 18:07 46.50809 -97.65074 42949 ft 463 kts 280°
2026-05-07 18:07 46.51654 -97.74351 42951 ft 463 kts 280°
2026-05-07 18:08 46.52492 -97.83625 42953 ft 463 kts 280°
2026-05-07 18:08 46.53323 -97.92907 42953 ft 463 kts 280°
2026-05-07 18:09 46.54146 -98.02187 42950 ft 463 kts 280°
2026-05-07 18:09 46.54960 -98.11467 42951 ft 463 kts 280°
2026-05-07 18:10 46.55763 -98.20693 42952 ft 464 kts 280°
2026-05-07 18:10 46.56564 -98.29987 42954 ft 463 kts 279°
2026-05-07 18:11 46.57357 -98.39281 42957 ft 463 kts 279°
2026-05-07 18:11 46.58142 -98.48576 42957 ft 463 kts 279°
2026-05-07 18:12 46.58920 -98.57879 42948 ft 464 kts 279°
2026-05-07 18:12 46.59691 -98.67192 42947 ft 464 kts 279°
2026-05-07 18:13 46.60455 -98.76503 42944 ft 464 kts 279°
2026-05-07 18:13 46.61211 -98.85828 42944 ft 464 kts 279°
2026-05-07 18:14 46.61960 -98.95141 42953 ft 463 kts 279°
2026-05-07 18:14 46.62702 -99.04479 42954 ft 465 kts 279°
2026-05-07 18:15 46.63436 -99.13819 42957 ft 465 kts 279°
2026-05-07 18:15 46.64163 -99.23161 42953 ft 465 kts 279°
2026-05-07 18:16 46.64883 -99.32508 42952 ft 465 kts 279°
2026-05-07 18:16 46.65593 -99.41839 42949 ft 463 kts 279°
2026-05-07 18:17 46.66295 -99.51161 42950 ft 463 kts 279°
2026-05-07 18:17 46.66990 -99.60495 42954 ft 464 kts 279°
2026-05-07 18:18 46.67677 -99.69827 42952 ft 464 kts 278°
2026-05-07 18:18 46.68353 -99.79097 42949 ft 463 kts 278°
2026-05-07 18:19 46.69022 -99.88401 42961 ft 462 kts 278°
2026-05-07 18:19 46.69685 -99.97713 42959 ft 462 kts 278°
2026-05-07 18:20 46.70340 -100.07025 42961 ft 462 kts 278°
2026-05-07 18:20 46.70987 -100.16340 42963 ft 462 kts 278°
2026-05-07 18:21 46.71625 -100.25642 42958 ft 460 kts 278°
2026-05-07 18:21 46.72258 -100.34951 42953 ft 462 kts 278°
2026-05-07 18:22 46.72882 -100.44269 42946 ft 462 kts 278°
2026-05-07 18:22 46.73500 -100.53593 42933 ft 462 kts 278°
2026-05-07 18:23 46.74109 -100.62918 42905 ft 462 kts 278°
2026-05-07 18:23 46.74710 -100.72230 42925 ft 461 kts 278°
2026-05-07 18:24 46.75303 -100.81543 42927 ft 461 kts 278°
2026-05-07 18:24 46.75889 -100.90864 42931 ft 462 kts 278°
2026-05-07 18:25 46.76468 -101.00186 42936 ft 462 kts 278°
2026-05-07 18:25 46.77039 -101.09508 42938 ft 462 kts 278°
2026-05-07 18:26 46.77603 -101.18838 42943 ft 461 kts 278°
2026-05-07 18:26 46.78158 -101.28162 42950 ft 462 kts 278°
2026-05-07 18:27 46.78706 -101.37489 42945 ft 461 kts 277°
2026-05-07 18:27 46.79247 -101.46822 42914 ft 462 kts 277°
2026-05-07 18:28 46.79780 -101.56161 42936 ft 462 kts 277°
2026-05-07 18:28 46.80307 -101.65514 42942 ft 462 kts 277°
2026-05-07 18:29 46.80826 -101.74871 42942 ft 462 kts 277°
2026-05-07 18:29 46.81337 -101.84228 42945 ft 462 kts 277°
2026-05-07 18:30 46.81840 -101.93581 42939 ft 462 kts 277°
2026-05-07 18:30 46.82337 -102.02942 42935 ft 462 kts 277°
2026-05-07 18:31 46.82822 -102.12243 42928 ft 462 kts 277°
2026-05-07 18:31 46.83303 -102.21609 42929 ft 463 kts 277°
2026-05-07 18:32 46.83776 -102.30977 42913 ft 463 kts 277°
2026-05-07 18:32 46.84242 -102.40349 42916 ft 462 kts 277°
2026-05-07 18:33 46.84699 -102.49718 42903 ft 463 kts 277°
2026-05-07 18:33 46.85150 -102.59093 42900 ft 463 kts 276°
2026-05-07 18:34 46.85592 -102.68467 42895 ft 463 kts 276°
2026-05-07 18:34 46.86014 -102.77843 42894 ft 462 kts 275°
2026-05-07 18:35 46.86120 -102.87259 42893 ft 464 kts 274°
2026-05-07 18:35 46.86231 -102.96677 42904 ft 464 kts 274°
2026-05-07 18:36 46.86328 -103.06115 42912 ft 464 kts 274°
2026-05-07 18:36 46.86417 -103.15476 42924 ft 464 kts 274°
2026-05-07 18:37 46.86501 -103.24900 42917 ft 464 kts 274°
2026-05-07 18:37 46.86574 -103.34323 42923 ft 464 kts 274°
2026-05-07 18:38 46.86642 -103.43749 42923 ft 464 kts 273°
2026-05-07 18:38 46.86701 -103.53176 42923 ft 464 kts 273°
2026-05-07 18:39 46.86753 -103.62595 42922 ft 463 kts 273°
2026-05-07 18:39 46.86796 -103.72016 42927 ft 464 kts 273°
2026-05-07 18:40 46.86832 -103.81441 42923 ft 464 kts 273°
2026-05-07 18:40 46.86861 -103.90866 42927 ft 464 kts 273°
2026-05-07 18:41 46.86881 -104.00291 42906 ft 464 kts 273°
2026-05-07 18:41 46.86894 -104.09710 42932 ft 464 kts 273°
2026-05-07 18:42 46.86899 -104.19132 42929 ft 464 kts 273°
2026-05-07 18:42 46.86897 -104.28552 42932 ft 464 kts 273°
2026-05-07 18:43 46.86886 -104.37975 42934 ft 464 kts 273°
2026-05-07 18:43 46.86868 -104.47397 42929 ft 464 kts 273°
2026-05-07 18:44 46.86843 -104.56837 42925 ft 464 kts 272°
2026-05-07 18:44 46.86809 -104.66272 42939 ft 465 kts 272°
2026-05-07 18:45 46.86768 -104.75713 42932 ft 465 kts 272°
2026-05-07 18:45 46.86719 -104.85157 42900 ft 465 kts 272°
2026-05-07 18:46 46.86662 -104.94600 42915 ft 465 kts 272°
2026-05-07 18:46 46.86597 -105.04050 42912 ft 465 kts 272°
2026-05-07 18:47 46.86525 -105.13496 42909 ft 465 kts 272°
2026-05-07 18:47 46.86458 -105.21344 42900 ft 465 kts 272°
2026-05-07 18:48 46.86372 -105.30787 42911 ft 465 kts 272°
2026-05-07 18:48 46.86277 -105.40237 42910 ft 465 kts 272°
2026-05-07 18:49 46.86175 -105.49685 42906 ft 465 kts 272°
2026-05-07 18:49 46.86065 -105.59132 42907 ft 465 kts 272°
2026-05-07 18:50 46.85947 -105.68578 42888 ft 465 kts 272°
2026-05-07 18:50 46.85822 -105.78029 42904 ft 465 kts 272°
2026-05-07 18:51 46.85688 -105.87467 42902 ft 465 kts 272°
2026-05-07 18:51 46.85547 -105.96909 42905 ft 465 kts 272°
2026-05-07 18:52 46.85398 -106.06352 42903 ft 465 kts 272°
2026-05-07 18:52 46.85242 -106.15794 42903 ft 465 kts 272°
2026-05-07 18:53 46.85077 -106.25240 42914 ft 465 kts 271°
2026-05-07 18:53 46.84905 -106.34695 42914 ft 465 kts 271°
2026-05-07 18:54 46.84726 -106.44089 42912 ft 466 kts 271°
2026-05-07 18:54 46.84538 -106.53536 42896 ft 465 kts 271°
2026-05-07 18:55 46.84342 -106.62979 42909 ft 465 kts 271°
2026-05-07 18:55 46.84139 -106.72417 42914 ft 465 kts 271°
2026-05-07 18:56 46.83928 -106.81860 42912 ft 465 kts 271°
2026-05-07 18:56 46.83710 -106.91298 42918 ft 465 kts 271°
2026-05-07 18:57 46.83483 -107.00745 42913 ft 465 kts 271°
2026-05-07 18:57 46.83248 -107.10186 42922 ft 465 kts 271°
2026-05-07 18:58 46.83007 -107.19626 42916 ft 465 kts 271°
2026-05-07 18:58 46.82757 -107.29068 42916 ft 465 kts 271°
2026-05-07 18:59 46.82499 -107.38512 42908 ft 465 kts 271°
2026-05-07 18:59 46.82234 -107.47938 42921 ft 465 kts 271°
2026-05-07 19:00 46.81961 -107.57369 42919 ft 465 kts 271°
2026-05-07 19:00 46.81680 -107.66790 42919 ft 465 kts 271°
2026-05-07 19:01 46.81392 -107.76218 42918 ft 465 kts 270°
2026-05-07 19:01 46.81096 -107.85635 42913 ft 464 kts 270°
2026-05-07 19:02 46.80793 -107.95048 42917 ft 465 kts 270°
2026-05-07 19:02 46.80481 -108.04465 42918 ft 465 kts 270°
2026-05-07 19:03 46.80162 -108.13882 42919 ft 464 kts 270°
2026-05-07 19:03 46.79835 -108.23295 42911 ft 464 kts 270°
2026-05-07 19:04 46.79501 -108.32706 42913 ft 464 kts 270°
2026-05-07 19:04 46.79159 -108.42117 42906 ft 465 kts 270°
2026-05-07 19:05 46.78809 -108.51532 42914 ft 465 kts 270°
2026-05-07 19:05 46.78453 -108.60884 42914 ft 465 kts 270°
2026-05-07 19:06 46.78088 -108.70303 42915 ft 465 kts 270°
2026-05-07 19:06 46.77525 -108.84421 42925 ft 465 kts 270°
2026-05-07 19:07 46.77140 -108.93834 42929 ft 465 kts 270°
2026-05-07 19:07 46.76747 -109.03244 42931 ft 465 kts 270°
2026-05-07 19:08 46.76348 -109.12609 42937 ft 461 kts 270°
2026-05-07 19:08 46.75945 -109.21951 42951 ft 462 kts 270°
2026-05-07 19:09 46.75530 -109.31302 42952 ft 462 kts 270°
2026-05-07 19:09 46.75110 -109.40661 42960 ft 462 kts 270°
2026-05-07 19:10 46.74681 -109.50001 42958 ft 459 kts 270°
2026-05-07 19:10 46.74249 -109.59287 42963 ft 460 kts 269°
2026-05-07 19:11 46.73807 -109.68589 42965 ft 460 kts 269°
2026-05-07 19:11 46.73357 -109.77893 42966 ft 460 kts 269°
2026-05-07 19:12 46.72903 -109.87138 42962 ft 460 kts 269°
2026-05-07 19:12 46.72440 -109.96423 42959 ft 459 kts 269°
2026-05-07 19:13 46.71969 -110.05719 42959 ft 460 kts 269°
2026-05-07 19:13 46.71490 -110.15001 42958 ft 460 kts 269°
2026-05-07 19:14 46.71003 -110.24299 42969 ft 460 kts 269°
2026-05-07 19:14 46.70509 -110.33586 42972 ft 460 kts 269°
2026-05-07 19:15 46.70008 -110.42865 42992 ft 460 kts 269°
2026-05-07 19:15 46.69499 -110.52145 42990 ft 459 kts 269°
2026-05-07 19:16 46.68983 -110.61427 42992 ft 460 kts 269°
2026-05-07 19:16 46.68458 -110.70717 42982 ft 460 kts 269°
2026-05-07 19:17 46.67927 -110.79986 43001 ft 459 kts 269°
2026-05-07 19:17 46.67389 -110.89256 43006 ft 460 kts 268°
2026-05-07 19:18 46.66842 -110.98528 43004 ft 459 kts 268°
2026-05-07 19:18 46.66289 -111.07795 43009 ft 460 kts 268°
2026-05-07 19:19 46.65728 -111.17049 43006 ft 459 kts 268°
2026-05-07 19:19 46.65160 -111.26325 43008 ft 461 kts 268°
2026-05-07 19:20 46.64581 -111.35606 43007 ft 461 kts 268°
2026-05-07 19:20 46.63997 -111.44888 43005 ft 461 kts 268°
2026-05-07 19:21 46.63408 -111.54107 42982 ft 461 kts 268°
2026-05-07 19:21 46.62809 -111.63377 43010 ft 460 kts 268°
2026-05-07 19:22 46.62202 -111.72640 43017 ft 460 kts 268°
2026-05-07 19:22 46.61588 -111.81907 43023 ft 460 kts 268°
2026-05-07 19:23 46.60966 -111.91168 43025 ft 460 kts 268°
2026-05-07 19:23 46.60192 -112.00411 43026 ft 462 kts 265°
2026-05-07 19:24 46.59265 -112.09708 43029 ft 461 kts 266°
2026-05-07 19:24 46.58361 -112.18873 43021 ft 461 kts 265°
2026-05-07 19:25 46.57431 -112.28098 43005 ft 461 kts 265°
2026-05-07 19:25 46.56501 -112.37316 42988 ft 461 kts 265°
2026-05-07 19:26 46.55561 -112.46517 42971 ft 460 kts 265°
2026-05-07 19:26 46.54617 -112.55710 42959 ft 460 kts 265°
2026-05-07 19:27 46.53664 -112.64898 42962 ft 460 kts 265°
2026-05-07 19:27 46.52703 -112.74092 42964 ft 460 kts 265°
2026-05-07 19:28 46.51737 -112.83252 42956 ft 458 kts 265°
2026-05-07 19:28 46.50767 -112.92403 42961 ft 458 kts 265°
2026-05-07 19:29 46.49787 -113.01549 42957 ft 459 kts 265°
2026-05-07 19:29 46.48802 -113.10690 42961 ft 458 kts 265°
2026-05-07 19:30 46.47809 -113.19825 42968 ft 456 kts 265°
2026-05-07 19:30 46.46814 -113.28912 42967 ft 457 kts 265°
2026-05-07 19:31 46.45811 -113.38004 42971 ft 457 kts 265°
2026-05-07 19:31 46.44793 -113.47156 42974 ft 457 kts 265°
2026-05-07 19:32 46.43782 -113.56182 42947 ft 456 kts 265°
2026-05-07 19:32 46.42928 -113.63747 42968 ft 454 kts 265°
2026-05-07 19:33 46.41737 -113.74248 42968 ft 454 kts 265°
2026-05-07 19:33 46.40702 -113.83271 42963 ft 454 kts 265°
2026-05-07 19:34 46.39831 -113.90842 42996 ft 454 kts 265°
2026-05-07 19:34 46.38784 -113.99842 43000 ft 452 kts 265°
2026-05-07 19:35 46.37738 -114.08818 43004 ft 452 kts 265°
2026-05-07 19:35 46.36680 -114.17796 43006 ft 452 kts 265°
2026-05-07 19:36 46.35618 -114.26765 42997 ft 450 kts 265°
2026-05-07 19:36 46.34548 -114.35726 43008 ft 452 kts 265°
2026-05-07 19:37 46.33471 -114.44681 42978 ft 452 kts 265°
2026-05-07 19:37 46.32388 -114.53640 42978 ft 452 kts 265°
2026-05-07 19:38 46.31296 -114.62598 42979 ft 452 kts 265°
2026-05-07 19:38 46.30197 -114.71563 42985 ft 453 kts 265°
2026-05-07 19:39 46.29099 -114.80439 42973 ft 449 kts 265°
2026-05-07 19:39 46.27996 -114.89333 42972 ft 450 kts 265°
2026-05-07 19:40 46.26881 -114.98235 42965 ft 452 kts 264°
2026-05-07 19:40 46.25757 -115.07161 42975 ft 450 kts 264°
2026-05-07 19:41 46.24630 -115.16049 42965 ft 449 kts 264°
2026-05-07 19:41 46.23494 -115.24951 42965 ft 450 kts 264°
2026-05-07 19:42 46.22351 -115.33849 42971 ft 450 kts 264°
2026-05-07 19:42 46.21202 -115.42736 42970 ft 450 kts 264°
2026-05-07 19:43 46.20045 -115.51629 42968 ft 451 kts 264°
2026-05-07 19:43 46.18884 -115.60489 42959 ft 448 kts 264°
2026-05-07 19:44 46.17714 -115.69383 42967 ft 451 kts 264°
2026-05-07 19:44 46.16535 -115.78248 42976 ft 450 kts 264°
2026-05-07 19:45 46.15351 -115.87144 43009 ft 450 kts 264°
2026-05-07 19:45 46.14159 -115.96015 43022 ft 452 kts 264°
2026-05-07 19:46 46.12955 -116.04924 43038 ft 452 kts 263°
2026-05-07 19:46 46.11746 -116.13821 43039 ft 452 kts 263°
2026-05-07 19:47 46.10530 -116.22714 43040 ft 452 kts 263°
2026-05-07 19:47 46.09306 -116.31604 42951 ft 452 kts 263°
2026-05-07 19:48 46.08072 -116.40522 42990 ft 453 kts 263°
2026-05-07 19:48 46.06830 -116.49437 42999 ft 455 kts 263°
2026-05-07 19:49 46.05580 -116.58357 42998 ft 455 kts 263°
2026-05-07 19:49 46.04324 -116.67269 42996 ft 453 kts 263°
2026-05-07 19:50 46.03061 -116.76182 43008 ft 455 kts 263°
2026-05-07 19:50 46.01789 -116.85092 43012 ft 455 kts 263°
2026-05-07 19:51 46.00512 -116.93991 43015 ft 454 kts 263°
2026-05-07 19:51 45.99227 -117.02896 43017 ft 455 kts 263°
2026-05-07 19:52 45.97946 -117.11711 43017 ft 452 kts 263°
2026-05-07 19:52 45.96659 -117.20543 43023 ft 453 kts 263°
2026-05-07 19:53 45.95358 -117.29392 43026 ft 452 kts 263°
2026-05-07 19:53 45.94053 -117.38231 43028 ft 452 kts 263°
2026-05-07 19:54 45.92731 -117.47128 43020 ft 452 kts 263°
2026-05-07 19:54 45.91427 -117.55857 43039 ft 450 kts 263°
2026-05-07 19:55 45.90108 -117.64645 43043 ft 450 kts 262°
2026-05-07 19:55 45.88785 -117.73394 43033 ft 449 kts 263°
2026-05-07 19:56 45.87454 -117.82171 43046 ft 450 kts 262°
2026-05-07 19:56 45.86114 -117.90930 43048 ft 450 kts 262°
2026-05-07 19:57 45.84770 -117.99694 43051 ft 449 kts 262°
2026-05-07 19:57 45.83418 -118.08446 43053 ft 449 kts 262°
2026-05-07 19:58 45.82059 -118.17202 43060 ft 449 kts 262°
2026-05-07 19:58 45.80695 -118.25940 43061 ft 449 kts 262°
2026-05-07 19:59 45.79324 -118.34680 43069 ft 449 kts 262°
2026-05-07 19:59 45.77945 -118.43423 43059 ft 450 kts 262°
2026-05-07 20:00 45.76559 -118.52154 43055 ft 449 kts 262°
2026-05-07 20:00 45.75169 -118.60880 43059 ft 449 kts 262°
2026-05-07 20:01 45.73779 -118.69556 43053 ft 450 kts 262°
2026-05-07 20:01 45.72371 -118.78289 43044 ft 450 kts 262°
2026-05-07 20:02 45.70958 -118.87015 43044 ft 450 kts 262°
2026-05-07 20:02 45.69614 -118.95753 43062 ft 448 kts 265°
2026-05-07 20:03 45.68606 -119.04538 43064 ft 449 kts 265°
2026-05-07 20:03 45.67559 -119.13348 43045 ft 449 kts 265°
2026-05-07 20:04 45.66525 -119.22144 43052 ft 449 kts 265°
2026-05-07 20:04 45.65473 -119.30941 43056 ft 448 kts 264°
2026-05-07 20:05 45.64947 -119.35344 42872 ft 455 kts 264°
2026-05-07 20:05 45.64409 -119.39865 42252 ft 465 kts 265°
2026-05-07 20:05 45.63857 -119.44424 41634 ft 466 kts 264°
2026-05-07 20:05 45.63300 -119.48988 41021 ft 466 kts 264°
2026-05-07 20:06 45.62746 -119.53549 40406 ft 465 kts 264°
2026-05-07 20:06 45.62194 -119.58093 39798 ft 464 kts 265°
2026-05-07 20:06 45.61641 -119.62627 39184 ft 462 kts 265°
2026-05-07 20:06 45.61086 -119.67140 38544 ft 461 kts 265°
2026-05-07 20:07 45.60531 -119.71650 37919 ft 462 kts 265°
2026-05-07 20:07 45.59975 -119.76180 37311 ft 466 kts 265°
2026-05-07 20:07 45.59408 -119.80762 36676 ft 470 kts 264°
2026-05-07 20:07 45.58833 -119.85374 36074 ft 474 kts 264°
2026-05-07 20:08 45.58251 -119.90021 35443 ft 477 kts 264°
2026-05-07 20:08 45.57667 -119.94691 34815 ft 479 kts 264°
2026-05-07 20:08 45.57085 -119.99333 34189 ft 482 kts 263°
2026-05-07 20:08 45.56489 -120.04057 33523 ft 486 kts 263°
2026-05-07 20:09 45.55890 -120.08775 32885 ft 481 kts 263°
2026-05-07 20:09 45.55294 -120.13454 32256 ft 478 kts 263°
2026-05-07 20:09 45.54704 -120.18096 31629 ft 474 kts 263°
2026-05-07 20:10 45.53526 -120.27311 30390 ft 470 kts 263°
2026-05-07 20:10 45.52936 -120.31878 29737 ft 466 kts 263°
2026-05-07 20:10 45.52351 -120.36414 29123 ft 464 kts 263°
2026-05-07 20:10 45.51822 -120.40929 28498 ft 459 kts 266°
2026-05-07 20:11 45.51808 -120.45446 27917 ft 455 kts 274°
2026-05-07 20:11 45.51906 -120.49943 27321 ft 452 kts 274°
2026-05-07 20:11 45.51977 -120.54416 26729 ft 450 kts 273°
2026-05-07 20:11 45.52036 -120.58872 26138 ft 449 kts 273°
2026-05-07 20:12 45.52107 -120.63308 25543 ft 445 kts 273°
2026-05-07 20:12 45.52184 -120.67708 24962 ft 443 kts 273°
2026-05-07 20:12 45.52252 -120.72091 24386 ft 441 kts 272°
2026-05-07 20:12 45.52313 -120.76452 23809 ft 439 kts 272°
2026-05-07 20:13 45.52374 -120.80798 23186 ft 436 kts 272°
2026-05-07 20:13 45.52436 -120.85101 22613 ft 433 kts 272°
2026-05-07 20:13 45.52496 -120.89368 22044 ft 424 kts 272°
2026-05-07 20:13 45.52547 -120.93420 21506 ft 395 kts 272°
2026-05-07 20:14 45.52595 -120.97223 21001 ft 375 kts 272°
2026-05-07 20:14 45.52644 -121.00904 20517 ft 368 kts 272°
2026-05-07 20:14 45.52690 -121.04543 20036 ft 366 kts 272°
2026-05-07 20:14 45.52727 -121.08161 19551 ft 363 kts 272°
2026-05-07 20:15 45.52739 -121.11697 19089 ft 360 kts 271°
2026-05-07 20:15 45.52753 -121.15253 18615 ft 358 kts 272°
2026-05-07 20:15 45.52777 -121.18794 18122 ft 355 kts 272°
2026-05-07 20:15 45.52799 -121.22278 17643 ft 349 kts 272°
2026-05-07 20:16 45.52816 -121.25728 17186 ft 348 kts 271°
2026-05-07 20:16 45.52831 -121.29170 16729 ft 344 kts 271°
2026-05-07 20:16 45.52846 -121.32576 16278 ft 344 kts 271°
2026-05-07 20:16 45.52861 -121.35960 15680 ft 335 kts 271°
2026-05-07 20:17 45.52872 -121.39212 15222 ft 323 kts 271°
2026-05-07 20:17 45.52884 -121.42403 14798 ft 321 kts 271°
2026-05-07 20:17 45.52895 -121.45563 14392 ft 318 kts 271°
2026-05-07 20:17 45.52904 -121.48715 13979 ft 317 kts 271°
2026-05-07 20:18 45.52913 -121.51844 13541 ft 314 kts 271°
2026-05-07 20:18 45.52921 -121.54941 13118 ft 310 kts 271°
2026-05-07 20:18 45.52927 -121.58002 12718 ft 309 kts 271°
2026-05-07 20:18 45.52933 -121.61047 12314 ft 305 kts 271°
2026-05-07 20:19 45.52939 -121.64071 11931 ft 305 kts 271°
2026-05-07 20:19 45.52942 -121.67043 11538 ft 291 kts 271°
2026-05-07 20:19 45.52944 -121.69860 11155 ft 280 kts 271°
2026-05-07 20:19 45.52955 -121.71699 10921 ft 280 kts 272°
2026-05-07 20:20 45.53091 -121.74456 10553 ft 277 kts 275°
2026-05-07 20:20 45.53196 -121.77164 10202 ft 271 kts 274°
2026-05-07 20:20 45.53296 -121.79868 9832 ft 277 kts 274°
2026-05-07 20:20 45.53409 -121.82599 9482 ft 274 kts 274°
2026-05-07 20:21 45.53524 -121.85300 9125 ft 270 kts 274°
2026-05-07 20:21 45.53634 -121.87979 8761 ft 268 kts 274°
2026-05-07 20:21 45.53739 -121.90556 8412 ft 255 kts 274°
2026-05-07 20:21 45.53840 -121.93083 8082 ft 254 kts 274°
2026-05-07 20:22 45.53940 -121.95567 7744 ft 245 kts 275°
2026-05-07 20:22 45.54034 -121.97937 7441 ft 235 kts 274°
2026-05-07 20:22 45.54126 -122.00220 7136 ft 226 kts 274°
2026-05-07 20:22 45.54213 -122.02464 6844 ft 228 kts 273°
2026-05-07 20:23 45.53911 -122.04635 6667 ft 221 kts 245°
2026-05-07 20:23 45.53063 -122.06499 6713 ft 226 kts 236°
2026-05-07 20:23 45.52147 -122.08319 6709 ft 225 kts 236°
2026-05-07 20:23 45.51233 -122.10141 6697 ft 226 kts 236°
2026-05-07 20:24 45.50316 -122.11983 6593 ft 230 kts 236°
2026-05-07 20:24 45.49393 -122.13838 6335 ft 229 kts 236°
2026-05-07 20:24 45.48478 -122.15670 6029 ft 225 kts 236°
2026-05-07 20:24 45.47624 -122.17502 5733 ft 218 kts 244°
2026-05-07 20:25 45.47374 -122.19615 5413 ft 218 kts 273°
2026-05-07 20:25 45.47552 -122.21744 5200 ft 217 kts 277°
2026-05-07 20:25 45.47747 -122.23890 4941 ft 219 kts 276°
2026-05-07 20:25 45.47927 -122.26026 4656 ft 216 kts 276°
2026-05-07 20:26 45.48105 -122.28149 4367 ft 216 kts 275°
2026-05-07 20:26 45.48319 -122.30274 4166 ft 216 kts 281°
2026-05-07 20:26 45.48835 -122.32285 3910 ft 214 kts 295°
2026-05-07 20:26 45.49537 -122.34086 3637 ft 203 kts 297°
2026-05-07 20:27 45.50219 -122.35828 3366 ft 200 kts 296°
2026-05-07 20:27 45.50887 -122.37538 3101 ft 194 kts 296°
2026-05-07 20:27 45.51531 -122.39187 2837 ft 186 kts 297°
2026-05-07 20:27 45.52145 -122.40760 2576 ft 173 kts 298°
2026-05-07 20:28 45.52702 -122.42185 2355 ft 162 kts 298°
2026-05-07 20:28 45.53244 -122.43575 2143 ft 159 kts 298°
2026-05-07 20:28 45.53785 -122.44965 1928 ft 157 kts 298°
2026-05-07 20:28 45.54316 -122.46328 1723 ft 156 kts 298°
2026-05-07 20:29 45.54835 -122.47661 1504 ft 147 kts 299°
2026-05-07 20:29 45.55322 -122.48908 1298 ft 137 kts 299°
2026-05-07 20:29 45.55781 -122.50076 1118 ft 134 kts 300°
2026-05-07 20:29 45.56229 -122.51227 940 ft 130 kts 300°
2026-05-07 20:30 45.56656 -122.52324 759 ft 127 kts 300°
2026-05-07 20:30 45.57088 -122.53432 590 ft 125 kts 300°
2026-05-07 20:30 45.57511 -122.54506 431 ft 124 kts 300°
2026-05-07 20:30 45.57922 -122.55558 267 ft 121 kts 301°
2026-05-07 20:31 45.58330 -122.56610 109 ft 122 kts 301°
2026-05-07 20:31 45.58736 -122.57652 30 ft 108 kts 300°
2026-05-07 20:31 45.59003 -122.58334 28 ft 56 kts 299°
2026-05-07 20:31 45.59145 -122.58709 30 ft 33 kts 296°
2026-05-07 20:32 45.59203 -122.58934 29 ft 16 kts 282°
2026-05-07 20:32 45.59213 -122.59086 29 ft 14 kts 269°
2026-05-07 20:32 45.59196 -122.59142 29 ft 4 kts 158°
2026-05-07 20:32 45.59173 -122.59092 29 ft 8 kts 119°
2026-05-07 20:33 45.59139 -122.59006 28 ft 12 kts 119°
2026-05-07 20:33 45.59093 -122.58886 29 ft 15 kts 119°
2026-05-07 20:33 45.59043 -122.58757 28 ft 15 kts 119°
2026-05-07 20:33 45.58990 -122.58622 28 ft 15 kts 119°
2026-05-07 20:34 45.58938 -122.58490 28 ft 15 kts 118°
2026-05-07 20:34 45.58887 -122.58359 28 ft 15 kts 119°
2026-05-07 20:34 45.58832 -122.58218 28 ft 17 kts 119°
2026-05-07 20:34 45.58774 -122.58067 29 ft 18 kts 119°
2026-05-07 20:35 45.58722 -122.57936 29 ft 13 kts 119°
2026-05-07 20:35 45.58686 -122.57849 29 ft 8 kts 133°
2026-05-07 20:35 45.58638 -122.57860 28 ft 8 kts 210°
2026-05-07 20:35 45.58624 -122.57915 28 ft 6 kts 293°
2026-05-07 20:36 45.58607 -122.57952 28 ft 5 kts 208°
2026-05-07 20:36 45.58577 -122.57970 28 ft 4 kts 177°
2026-05-07 20:36 45.58563 -122.57944 28 ft 2 kts 120°
2026-05-07 20:36 45.58562 -122.57941 28 ft 0 kts 120°